KD5UIG Weather Reports


Display with metric or nautical units.
time (UTC)temp
F
wind
direction
speed
MPH
gust
MPH
rain 1hr
in
rain 24hr
in
rain mn
in
humidity
%
barometer
mb
20260901192556 103 99 2.0 8.0 0.00 0.00 0.00 38 1015.4
20260901192056 103 51 2.0 8.0 0.00 0.00 0.00 38 1015.4
20260901191609 103 0 2.0 6.0 0.00 0.00 0.00 37 1015.5
20260901191054 103 81 1.0 9.0 0.00 0.00 0.00 38 1015.5
20260901190555 102 125 2.0 9.0 0.00 0.00 0.00 38 1015.7
20260901190111 102 80 3.0 9.0 0.00 0.00 0.00 39 1015.6
20260901185555 103 64 2.0 9.0 0.00 0.00 0.00 37 1015.7
20260901185058 103 267 1.0 8.0 0.00 0.00 0.00 39 1015.7
20260901184603 103 99 3.0 8.0 0.00 0.00 0.00 38 1015.9
20260901184055 102 86 2.0 9.0 0.00 0.00 0.00 39 1016.0
20260901183558 102 171 2.0 9.0 0.00 0.00 0.00 38 1016.1
20260901183110 102 205 2.0 9.0 0.00 0.00 0.00 38 1016.1
20260901182555 102 77 2.0 7.0 0.00 0.00 0.00 39 1016.2
20260901182055 102 121 1.0 10.0 0.00 0.00 0.00 39 1016.3
20260901181604 102 96 3.0 10.0 0.00 0.00 0.00 39 1016.3
20260901181054 103 124 2.0 8.0 0.00 0.00 0.00 40 1016.3
20260901180555 103 129 2.0 8.0 0.00 0.00 0.00 39 1016.6
20260901180107 103 57 1.0 5.0 0.00 0.00 0.00 39 1016.6
20260901175557 102 0 1.0 10.0 0.00 0.00 0.00 39 1016.7
20260901175055 102 110 2.0 11.0 0.00 0.00 0.00 40 1016.7
20260901174604 101 104 3.0 11.0 0.00 0.00 0.00 40 1016.7
20260901174055 101 211 4.0 9.0 0.00 0.00 0.00 41 1016.8
20260901173555 101 253 1.0 8.0 0.00 0.00 0.00 42 1016.9
20260901173116 101 75 2.0 8.0 0.00 0.00 0.00 42 1017.0
20260901172555 100 0 1.0 7.0 0.00 0.00 0.00 42 1017.1
20260901172055 100 178 2.0 7.0 0.00 0.00 0.00 43 1017.3
20260901171620 100 192 2.0 11.0 0.00 0.00 0.00 42 1017.2
20260901171057 100 108 1.0 11.0 0.00 0.00 0.00 43 1017.3
20260901170556 100 238 2.0 5.0 0.00 0.00 0.00 43 1017.5
20260901170108 100 96 1.0 4.0 0.00 0.00 0.00 42 1017.5
20260901165555 100 156 1.0 8.0 0.00 0.00 0.00 42 1017.5
20260901165055 100 0 1.0 8.0 0.00 0.00 0.00 43 1017.6
20260901164635 100 215 1.0 3.0 0.00 0.00 0.00 44 1017.6
20260901164055 100 0 0.0 7.0 0.00 0.00 0.00 43 1017.7
20260901163555 100 140 1.0 7.0 0.00 0.00 0.00 44 1017.7
20260901163104 100 166 1.0 5.0 0.00 0.00 0.00 44 1017.6
20260901162557 99 190 1.0 4.0 0.00 0.00 0.00 43 1017.7
20260901162055 99 206 1.0 8.0 0.00 0.00 0.00 44 1017.7
20260901161625 99 0 3.0 8.0 0.00 0.00 0.00 44 1017.7
20260901161055 99 182 2.0 7.0 0.00 0.00 0.00 44 1017.6
20260901160555 99 186 3.0 7.0 0.00 0.00 0.00 44 1017.6
20260901160105 99 255 1.0 7.0 0.00 0.00 0.00 46 1017.6
20260901155554 98 189 2.0 7.0 0.00 0.00 0.00 46 1017.6
20260901155055 98 199 1.0 7.0 0.00 0.00 0.00 46 1017.6
20260901154605 98 0 0.0 8.0 0.00 0.00 0.00 48 1017.5
20260901154055 97 190 1.0 8.0 0.00 0.00 0.00 48 1017.5
20260901153554 97 143 1.0 5.0 0.00 0.00 0.00 49 1017.5
20260901153103 96 90 1.0 5.0 0.00 0.00 0.00 48 1017.5
20260901152554 96 0 1.0 6.0 0.00 0.00 0.00 50 1017.5
20260901152055 96 0 1.0 6.0 0.00 0.00 0.00 50 1017.5
20260901151605 95 202 1.0 5.0 0.00 0.00 0.00 50 1017.5
20260901151055 95 196 1.0 7.0 0.00 0.00 0.00 51 1017.5
20260901150556 94 196 2.0 7.0 0.00 0.00 0.00 52 1017.5
20260901150105 94 0 1.0 4.0 0.00 0.00 0.00 53 1017.5
20260901145555 93 112 0.0 4.0 0.00 0.00 0.00 54 1017.5
20260901145055 92 161 0.0 7.0 0.00 0.00 0.00 55 1017.5
20260901144606 92 159 1.0 7.0 0.00 0.00 0.00 55 1017.6
20260901144055 91 202 1.0 6.0 0.00 0.00 0.00 56 1017.6
20260901143555 91 0 1.0 7.0 0.00 0.00 0.00 57 1017.6
20260901143106 90 180 1.0 7.0 0.00 0.00 0.00 57 1017.7
20260901142558 90 205 0.0 4.0 0.00 0.00 0.00 58 1017.8
20260901142055 89 201 1.0 6.0 0.00 0.00 0.00 59 1017.7
20260901141609 89 180 1.0 6.0 0.00 0.00 0.00 59 1017.8
20260901141055 88 184 1.0 6.0 0.00 0.00 0.00 59 1017.7
20260901140555 88 0 1.0 6.0 0.00 0.00 0.00 60 1017.7
20260901140105 87 0 2.0 6.0 0.00 0.00 0.00 60 1017.7
20260901135555 87 205 0.0 6.0 0.00 0.00 0.00 61 1017.7
20260901135055 86 0 1.0 6.0 0.00 0.00 0.00 62 1017.7
20260901134604 85 0 0.0 5.0 0.00 0.00 0.00 63 1017.6
20260901134055 85 181 0.0 5.0 0.00 0.00 0.00 65 1017.5
20260901133554 84 181 1.0 5.0 0.00 0.00 0.00 65 1017.5
20260901133103 83 0 0.0 2.0 0.00 0.00 0.00 67 1017.4
20260901132556 83 204 0.0 1.0 0.00 0.00 0.00 69 1017.5
20260901132056 82 0 0.0 2.0 0.00 0.00 0.00 70 1017.4
20260901131611 81 0 0.0 2.0 0.00 0.00 0.00 71 1017.4
20260901131055 80 204 0.0 2.0 0.00 0.00 0.00 72 1017.4
20260901130555 80 0 0.0 1.0 0.00 0.00 0.00 72 1017.3
20260901125555 79 0 0.0 1.0 0.00 0.00 0.00 73 1017.2
20260901125055 78 0 0.0 1.0 0.00 0.00 0.00 73 1017.1
20260901124605 78 0 0.0 2.0 0.00 0.00 0.00 73 1017.2
20260901124055 78 0 0.0 2.0 0.00 0.00 0.00 73 1017.0
20260901123554 78 205 0.0 0.0 0.00 0.00 0.00 72 1017.0
20260901123105 78 0 0.0 0.0 0.00 0.00 0.00 72 1016.9
20260901122557 78 0 0.0 0.0 0.00 0.00 0.00 72 1016.9
20260901122055 78 0 0.0 0.0 0.00 0.00 0.00 71 1016.8
20260901121612 78 0 0.0 0.0 0.00 0.00 0.00 71 1016.7
20260901121055 78 0 0.0 0.0 0.00 0.00 0.00 71 1016.7
20260901120555 78 0 0.0 0.0 0.00 0.00 0.00 71 1016.7
20260901120124 78 0 0.0 0.0 0.00 0.00 0.00 71 1016.7
20260901115555 78 0 0.0 0.0 0.00 0.00 0.00 71 1016.6
20260901115058 78 0 0.0 0.0 0.00 0.00 0.00 70 1016.5
20260901114605 78 0 0.0 0.0 0.00 0.00 0.00 70 1016.6
20260901114054 78 0 0.0 0.0 0.00 0.00 0.00 70 1016.6
20260901113555 78 0 0.0 0.0 0.00 0.00 0.00 70 1016.6
20260901113105 78 0 0.0 0.0 0.00 0.00 0.00 69 1016.5
20260901112556 78 0 0.0 0.0 0.00 0.00 0.00 69 1016.5
20260901112056 79 0 0.0 2.0 0.00 0.00 0.00 68 1016.4
20260901111613 79 0 0.0 2.0 0.00 0.00 0.00 68 1016.2
20260901111055 79 205 0.0 1.0 0.00 0.00 0.00 67 1016.2
20260901110556 79 0 0.0 1.0 0.00 0.00 0.00 67 1016.2
20260901105555 80 0 0.0 1.0 0.00 0.00 0.00 66 1016.1
20260901105058 80 0 0.0 1.0 0.00 0.00 0.00 66 1016.0
20260901104602 80 0 0.0 2.0 0.00 0.00 0.00 66 1016.2
20260901104055 80 0 0.0 2.0 0.00 0.00 0.00 66 1016.1
20260901103555 80 0 0.0 0.0 0.00 0.00 0.00 65 1016.2
20260901103127 80 0 0.0 0.0 0.00 0.00 0.00 65 1016.2
20260901102556 80 0 0.0 0.0 0.00 0.00 0.00 65 1016.2
20260901102054 81 0 0.0 0.0 0.00 0.00 0.00 64 1016.0
20260901101603 81 0 0.0 0.0 0.00 0.00 0.00 64 1016.0
20260901101055 81 0 0.0 1.0 0.00 0.00 0.00 64 1016.1
20260901100555 81 0 0.0 3.0 0.00 0.00 0.00 64 1016.1
20260901100107 81 0 0.0 3.0 0.00 0.00 0.00 64 1016.1
20260901095555 81 0 0.0 3.0 0.00 0.00 0.00 65 1016.1
20260901095055 81 0 0.0 3.0 0.00 0.00 0.00 64 1016.2
20260901094600 81 207 0.0 2.0 0.00 0.00 0.00 64 1016.2
20260901094055 81 0 0.0 1.0 0.00 0.00 0.00 64 1016.2
20260901093559 81 0 0.0 2.0 0.00 0.00 0.00 64 1016.3
20260901093129 81 0 0.0 2.0 0.00 0.00 0.00 64 1016.4
20260901092555 82 0 0.0 2.0 0.00 0.00 0.00 63 1016.3
20260901092055 82 0 0.0 3.0 0.00 0.00 0.00 63 1016.3
20260901091608 82 0 0.0 3.0 0.00 0.00 0.00 62 1016.3
20260901091054 82 208 0.0 3.0 0.00 0.00 0.00 62 1016.3
20260901090559 82 0 0.0 3.0 0.00 0.00 0.00 62 1016.3
20260901090108 82 0 0.0 3.0 0.00 0.00 0.00 61 1016.2
20260901085556 82 213 0.0 3.0 0.00 0.00 0.00 61 1016.2
20260901085055 82 214 0.0 3.0 0.00 0.00 0.00 61 1016.2
20260901084605 83 165 0.0 3.0 0.00 0.00 0.00 61 1016.2
20260901084055 83 0 0.0 3.0 0.00 0.00 0.00 60 1016.2
20260901083555 83 121 0.0 3.0 0.00 0.00 0.00 60 1016.2
20260901083106 83 0 0.0 3.0 0.00 0.00 0.00 60 1016.2
20260901082558 83 142 0.0 4.0 0.00 0.00 0.00 61 1016.0
20260901082054 83 0 0.0 4.0 0.00 0.00 0.00 60 1016.0
20260901081616 83 0 0.0 4.0 0.00 0.00 0.00 60 1016.0
20260901081058 83 145 0.0 3.0 0.00 0.00 0.00 59 1016.0
20260901080555 83 88 0.0 3.0 0.00 0.00 0.00 59 1015.9
20260901080106 83 143 0.0 3.0 0.00 0.00 0.00 59 1015.9
20260901075558 83 0 0.0 3.0 0.00 0.00 0.00 59 1015.9
20260901075054 83 128 0.0 2.0 0.00 0.00 0.00 59 1015.9
20260901074603 82 128 0.0 3.0 0.00 0.00 0.00 59 1015.8
20260901074054 82 129 0.0 3.0 0.00 0.00 0.00 60 1015.8
20260901073554 82 144 0.0 2.0 0.00 0.00 0.00 60 1015.8
20260901073104 82 0 0.0 2.0 0.00 0.00 0.00 60 1015.8
20260901072558 82 0 0.0 0.0 0.00 0.00 0.00 59 1015.9
20260901072055 82 0 0.0 1.0 0.00 0.00 0.00 59 1015.9
20260901071607 82 0 0.0 1.0 0.00 0.00 0.00 59 1015.8
20260901071055 82 0 0.0 1.0 0.00 0.00 0.00 59 1015.8
20260901070554 82 0 0.0 1.0 0.00 0.00 0.00 58 1015.8
20260901070107 82 0 0.0 1.0 0.00 0.00 0.00 58 1015.9
20260901065554 82 0 0.0 1.0 0.00 0.00 0.00 58 1015.8
20260901065055 82 0 0.0 1.0 0.00 0.00 0.00 57 1015.8
20260901064608 82 0 0.0 1.0 0.00 0.00 0.00 57 1015.8
20260901064055 83 0 0.0 1.0 0.00 0.00 0.00 57 1015.8
20260901063555 83 0 0.0 1.0 0.00 0.00 0.00 56 1015.9
20260901063101 83 0 0.0 1.0 0.00 0.00 0.00 55 1015.8
20260901062555 83 0 0.0 1.0 0.00 0.00 0.00 54 1015.7
20260901062057 83 0 0.0 1.0 0.00 0.00 0.00 54 1015.7
20260901061604 83 0 0.0 2.0 0.00 0.00 0.00 54 1015.6
20260901061055 83 0 0.0 3.0 0.00 0.00 0.00 53 1015.6
20260901060555 83 0 0.0 3.0 0.00 0.00 0.00 53 1015.5
20260901060105 83 145 0.0 1.0 0.00 0.00 0.00 52 1015.6
20260901055555 83 145 0.0 0.0 0.00 0.00 0.00 51 1015.4
20260901055055 84 0 0.0 2.0 0.00 0.00 0.00 51 1015.4
20260901054602 84 0 0.0 2.0 0.00 0.00 0.00 51 1015.3
20260901054055 84 145 0.0 2.0 0.00 0.00 0.00 51 1015.3
20260901053555 84 0 0.0 0.0 0.00 0.00 0.00 50 1015.4
20260901053123 84 0 0.0 1.0 0.00 0.00 0.00 50 1015.3
20260901052555 84 0 0.0 1.0 0.00 0.00 0.00 50 1015.2
20260901052054 84 0 0.0 1.0 0.00 0.00 0.00 50 1015.1
20260901051605 84 0 0.0 0.0 0.00 0.00 0.00 49 1015.1
20260901051055 84 0 0.0 0.0 0.00 0.00 0.00 49 1015.1
20260901050557 84 0 0.0 0.0 0.00 0.00 0.00 49 1015.0
20260901050105 84 0 0.0 0.0 0.00 0.00 0.00 48 1015.0
20260901045556 84 0 0.0 0.0 0.00 0.00 0.00 48 1015.0
20260901045055 84 0 0.0 0.0 0.00 0.00 0.00 48 1014.9
20260901044602 84 0 0.0 0.0 0.00 0.00 0.00 48 1014.9
20260901044055 85 0 0.0 0.0 0.00 0.00 0.00 48 1014.9
20260901043555 85 0 0.0 1.0 0.00 0.00 0.00 48 1014.8
20260901043121 85 0 0.0 1.0 0.00 0.00 0.00 47 1014.9
20260901042554 85 0 0.0 1.0 0.00 0.00 0.00 47 1014.9
20260901042054 85 0 0.0 1.0 0.00 0.00 0.00 47 1014.9
20260901041612 85 0 0.0 1.0 0.00 0.00 0.00 47 1014.9
20260901041055 85 0 0.0 1.0 0.00 0.00 0.00 47 1014.9
20260901040555 85 0 0.0 1.0 0.00 0.00 0.00 47 1014.9
20260901040106 85 0 0.0 1.0 0.00 0.00 0.00 47 1014.9
20260901035554 85 0 0.0 1.0 0.00 0.00 0.00 46 1014.9
20260901035056 86 0 0.0 1.0 0.00 0.00 0.00 46 1015.0
20260901034607 86 0 0.0 1.0 0.00 0.00 0.00 46 1015.0
20260901034054 86 0 0.0 1.0 0.00 0.00 0.00 46 1014.9
20260901033554 86 0 0.0 1.0 0.00 0.00 0.00 45 1014.9
20260901033109 86 0 0.0 1.0 0.00 0.00 0.00 45 1014.9
20260901032554 86 0 0.0 1.0 0.00 0.00 0.00 45 1014.9
20260901032055 87 0 0.0 1.0 0.00 0.00 0.00 45 1014.9
20260901031605 87 0 0.0 1.0 0.00 0.00 0.00 44 1014.9
20260901031055 87 0 0.0 1.0 0.00 0.00 0.00 44 1015.0
20260901030555 87 0 0.0 1.0 0.00 0.00 0.00 44 1014.9
20260901030104 87 0 0.0 1.0 0.00 0.00 0.00 44 1014.9
20260901025555 88 0 0.0 2.0 0.00 0.00 0.00 43 1014.9
20260901025055 88 0 0.0 2.0 0.00 0.00 0.00 43 1014.7
20260901024608 88 145 0.0 2.0 0.00 0.00 0.00 43 1014.8
20260901024058 89 0 0.0 1.0 0.00 0.00 0.00 43 1014.7
20260901023554 89 0 0.0 1.0 0.00 0.00 0.00 43 1014.5
20260901023105 89 0 0.0 1.0 0.00 0.00 0.00 42 1014.4
20260901022555 89 0 0.0 1.0 0.00 0.00 0.00 42 1014.4
20260901022054 90 0 0.0 1.0 0.00 0.00 0.00 41 1014.4
20260901021609 90 0 0.0 1.0 0.00 0.00 0.00 41 1014.3
20260901021055 90 0 0.0 2.0 0.00 0.00 0.00 41 1014.2
20260901020555 90 0 0.0 2.0 0.00 0.00 0.00 41 1014.2
20260901020059 91 0 0.0 2.0 0.00 0.00 0.00 41 1014.2
20260901015557 91 0 0.0 1.0 0.00 0.00 0.00 39 1014.1
20260901015054 91 145 0.0 1.0 0.00 0.00 0.00 39 1014.0
20260901014606 92 0 0.0 1.0 0.00 0.00 0.00 39 1014.0
20260901014055 92 0 0.0 1.0 0.00 0.00 0.00 39 1014.0
20260901013555 92 0 0.0 2.0 0.00 0.00 0.00 38 1013.9
20260901013103 93 0 0.0 2.0 0.00 0.00 0.00 38 1013.9
20260901012555 93 0 0.0 2.0 0.00 0.00 0.00 37 1013.9
20260901012054 94 0 0.0 1.0 0.00 0.00 0.00 37 1013.8
20260901011603 94 0 0.0 1.0 0.00 0.00 0.00 36 1013.7
20260901011054 94 145 0.0 2.0 0.00 0.00 0.00 36 1013.8
20260901010556 95 0 0.0 2.0 0.00 0.00 0.00 36 1013.7
20260901010103 95 0 0.0 2.0 0.00 0.00 0.00 35 1013.7
20260901005556 96 145 0.0 2.0 0.00 0.00 0.00 35 1013.8
20260901005055 96 0 0.0 3.0 0.00 0.00 0.00 34 1013.7
20260901004605 97 0 0.0 6.0 0.00 0.00 0.00 34 1013.7
20260901004055 97 0 0.0 6.0 0.00 0.00 0.00 34 1013.7
20260901003600 97 167 1.0 3.0 0.00 0.00 0.00 33 1013.7
20260901003105 98 195 0.0 4.0 0.00 0.00 0.00 33 1013.7
20260901002555 98 195 0.0 5.0 0.00 0.00 0.00 33 1013.8
20260901002054 98 167 1.0 8.0 0.00 0.00 0.00 32 1013.8
20260901001608 99 0 1.0 8.0 0.00 0.00 0.00 32 1013.8
20260901001051 99 0 1.0 8.0 0.00 0.00 0.00 32 1013.8
20260901000555 99 0 1.0 6.0 0.00 0.00 0.00 32 1013.7
20260901000109 99 152 1.0 5.0 0.00 0.00 0.00 32 1013.7
20260831235555 100 202 1.0 5.0 0.00 0.00 0.00 32 1013.6
20260831235055 100 170 1.0 6.0 0.00 0.00 0.00 32 1013.8
20260831234604 100 69 1.0 6.0 0.00 0.00 0.00 32 1013.8
20260831234055 100 0 1.0 7.0 0.00 0.00 0.00 32 1013.7
20260831233554 101 333 1.0 8.0 0.00 0.00 0.00 32 1013.8
20260831233108 101 83 2.0 8.0 0.00 0.00 0.00 32 1013.8
20260831232552 101 61 1.0 7.0 0.00 0.00 0.00 31 1013.6
20260831232054 101 29 2.0 10.0 0.00 0.00 0.00 31 1013.6
20260831231610 101 103 2.0 11.0 0.00 0.00 0.00 31 1013.6
20260831231055 102 74 2.0 11.0 0.00 0.00 0.00 30 1013.6
20260831230555 102 223 3.0 11.0 0.00 0.00 0.00 30 1013.6
20260831230109 102 123 3.0 11.0 0.00 0.00 0.00 30 1013.7
20260831225555 102 182 3.0 7.0 0.00 0.00 0.00 30 1013.8
20260831225054 103 106 2.0 10.0 0.00 0.00 0.00 30 1013.8
20260831224606 103 159 2.0 10.0 0.00 0.00 0.00 30 1013.8
20260831224054 103 114 3.0 9.0 0.00 0.00 0.00 30 1013.8
20260831223555 103 98 3.0 9.0 0.00 0.00 0.00 30 1013.9
20260831223111 103 136 2.0 9.0 0.00 0.00 0.00 29 1013.8
20260831222555 104 147 2.0 9.0 0.00 0.00 0.00 29 1013.8
20260831222055 104 82 3.0 9.0 0.00 0.00 0.00 29 1013.8
20260831221609 104 193 3.0 9.0 0.00 0.00 0.00 29 1013.9
20260831221055 104 234 2.0 9.0 0.00 0.00 0.00 29 1014.0
20260831220555 105 63 2.0 7.0 0.00 0.00 0.00 29 1014.0
20260831220126 105 140 2.0 6.0 0.00 0.00 0.00 29 1014.0
20260831215558 105 136 2.0 8.0 0.00 0.00 0.00 29 1014.2
20260831215055 105 184 2.0 8.0 0.00 0.00 0.00 28 1014.2
20260831214606 105 187 3.0 9.0 0.00 0.00 0.00 28 1014.2
20260831214054 104 0 2.0 9.0 0.00 0.00 0.00 31 1014.2
20260831213555 104 107 3.0 8.0 0.00 0.00 0.00 30 1014.2
20260831213113 103 187 3.0 8.0 0.00 0.00 0.00 29 1014.3
20260831212555 103 5 2.0 8.0 0.00 0.00 0.00 30 1014.4
20260831212054 104 214 2.0 7.0 0.00 0.00 0.00 29 1014.5
20260831211604 105 164 2.0 7.0 0.00 0.00 0.00 28 1014.5
20260831211054 105 150 2.0 8.0 0.00 0.00 0.00 30 1014.6
20260831210554 105 69 2.0 8.0 0.00 0.00 0.00 30 1014.6
20260831210100 105 123 2.0 10.0 0.00 0.00 0.00 29 1014.7
20260831205555 106 163 3.0 10.0 0.00 0.00 0.00 28 1014.6
20260831205055 105 217 1.0 7.0 0.00 0.00 0.00 29 1014.6
20260831204605 105 88 1.0 7.0 0.00 0.00 0.00 29 1014.9
20260831204055 106 111 2.0 11.0 0.00 0.00 0.00 28 1014.9
20260831203556 106 102 2.0 14.0 0.00 0.00 0.00 28 1015.0
20260831203134 106 201 4.0 14.0 0.00 0.00 0.00 26 1015.0
20260831202556 106 159 2.0 7.0 0.00 0.00 0.00 27 1015.1
20260831202057 106 225 2.0 9.0 0.00 0.00 0.00 27 1015.1
20260831201606 106 311 3.0 9.0 0.00 0.00 0.00 27 1015.2
20260831201054 106 0 3.0 9.0 0.00 0.00 0.00 27 1015.2
20260831200601 105 183 2.0 9.0 0.00 0.00 0.00 28 1015.2
20260831200107 105 259 1.0 8.0 0.00 0.00 0.00 30 1015.3
20260831195559 104 101 2.0 9.0 0.00 0.00 0.00 30 1015.4
20260831195055 104 101 2.0 9.0 0.00 0.00 0.00 30 1015.4
20260831194614 104 92 2.0 9.0 0.00 0.00 0.00 30 1015.6
20260831194057 104 67 3.0 11.0 0.00 0.00 0.00 31 1015.5
20260831193555 103 205 3.0 12.0 0.00 0.00 0.00 31 1015.6
20260831193102 102 193 3.0 12.0 0.00 0.00 0.00 32 1015.7